| time (UTC) | temp F | wind direction | speed knots | gust knots | rain 1hr in | rain 24hr in | rain mn in | humidity % | barometer mb |
| 20260504110510 | 93 | 224 | 2.6 | 5.2 | 0.00 | 0.00 | 0.00 | 70 | 1000.9 |
| 20260504100509 | 94 | 190 | 3.5 | 5.2 | 0.00 | 0.00 | 0.00 | 66 | 1001.5 |
| 20260504082008 | 93 | 277 | 5.2 | 8.7 | 0.00 | 0.00 | 0.00 | 69 | 1002.5 |
| 20260504081509 | 93 | 205 | 4.3 | 5.2 | 0.00 | 0.00 | 0.00 | 69 | 1002.6 |
| 20260504050509 | 89 | 270 | 4.3 | 6.1 | 0.00 | 0.00 | 0.00 | 75 | 1004.1 |
| 20260504050009 | 89 | 270 | 2.6 | 8.7 | 0.00 | 0.00 | 0.00 | 76 | 1004.1 |
| 20260504044509 | 88 | 284 | 2.6 | 6.1 | 0.00 | 0.00 | 0.00 | 78 | 1004.2 |
| 20260504044008 | 87 | 320 | 4.3 | 7.8 | 0.00 | 0.00 | 0.00 | 79 | 1004.5 |
| 20260504043509 | 87 | 296 | 3.5 | 7.0 | 0.00 | 0.00 | 0.00 | 79 | 1004.5 |
| 20260504043009 | 87 | 275 | 4.3 | 7.8 | 0.00 | 0.00 | 0.00 | 79 | 1004.6 |
| 20260504042008 | 87 | 298 | 2.6 | 7.8 | 0.00 | 0.00 | 0.00 | 80 | 1004.6 |
| 20260504041508 | 86 | 276 | 4.3 | 7.8 | 0.00 | 0.00 | 0.00 | 80 | 1004.6 |
| 20260504041009 | 87 | 270 | 3.5 | 6.1 | 0.00 | 0.00 | 0.00 | 80 | 1004.6 |
| 20260504040508 | 86 | 315 | 3.5 | 5.2 | 0.00 | 0.00 | 0.00 | 81 | 1004.6 |
| 20260504040009 | 86 | 285 | 2.6 | 5.2 | 0.00 | 0.00 | 0.00 | 82 | 1004.6 |
| 20260504035508 | 86 | 295 | 5.2 | 7.0 | 0.00 | 0.00 | 0.00 | 82 | 1004.6 |
| 20260504035008 | 86 | 270 | 2.6 | 6.1 | 0.00 | 0.00 | 0.00 | 82 | 1004.6 |
| 20260504034008 | 86 | 280 | 2.6 | 5.2 | 0.00 | 0.00 | 0.00 | 83 | 1004.6 |
| 20260504033508 | 86 | 303 | 1.7 | 5.2 | 0.00 | 0.00 | 0.00 | 83 | 1004.6 |
| 20260504033008 | 85 | 270 | 2.6 | 5.2 | 0.00 | 0.00 | 0.00 | 84 | 1004.5 |
| 20260504032508 | 85 | 292 | 2.6 | 4.3 | 0.00 | 0.00 | 0.00 | 84 | 1004.5 |
| 20260504032007 | 85 | 296 | 1.7 | 2.6 | 0.00 | 0.00 | 0.00 | 84 | 1004.5 |
| 20260504031508 | 84 | 292 | 3.5 | 5.2 | 0.00 | 0.00 | 0.00 | 84 | 1004.3 |
| 20260504030508 | 84 | 320 | 4.3 | 5.2 | 0.00 | 0.00 | 0.00 | 84 | 1004.2 |
| 20260504030008 | 85 | 271 | 3.5 | 5.2 | 0.00 | 0.00 | 0.00 | 84 | 1004.2 |
| 20260504025508 | 85 | 270 | 2.6 | 6.1 | 0.00 | 0.00 | 0.00 | 84 | 1004.1 |
| 20260504024008 | 84 | 333 | 1.7 | 5.2 | 0.00 | 0.00 | 0.00 | 84 | 1004.0 |
| 20260504023508 | 84 | 301 | 2.6 | 5.2 | 0.00 | 0.00 | 0.00 | 84 | 1004.0 |
| 20260504023008 | 84 | 292 | 1.7 | 5.2 | 0.00 | 0.00 | 0.00 | 84 | 1004.0 |
| 20260504022507 | 84 | 302 | 2.6 | 5.2 | 0.00 | 0.00 | 0.00 | 84 | 1004.0 |
| 20260504022008 | 84 | 272 | 4.3 | 5.2 | 0.00 | 0.00 | 0.00 | 84 | 1004.0 |
| 20260504021508 | 84 | 285 | 3.5 | 5.2 | 0.00 | 0.00 | 0.00 | 86 | 1003.9 |
| 20260504021009 | 83 | 302 | 2.6 | 6.1 | 0.00 | 0.00 | 0.00 | 86 | 1003.9 |
| 20260504020508 | 83 | 289 | 4.3 | 5.2 | 0.00 | 0.00 | 0.00 | 88 | 1003.8 |
| 20260504020008 | 82 | 309 | 2.6 | 5.2 | 0.00 | 0.00 | 0.00 | 89 | 1003.8 |
| 20260504013508 | 81 | 279 | 1.7 | 4.3 | 0.00 | 0.00 | 0.00 | 92 | 1003.5 |
| 20260504013007 | 81 | 315 | 2.6 | 4.3 | 0.00 | 0.00 | 0.00 | 93 | 1003.5 |
| 20260504012508 | 80 | 343 | 1.7 | 4.3 | 0.00 | 0.00 | 0.00 | 94 | 1003.5 |
| 20260504012007 | 80 | 327 | 1.7 | 2.6 | 0.00 | 0.00 | 0.00 | 95 | 1003.4 |
| 20260504011008 | 80 | 270 | 1.7 | 4.3 | 0.00 | 0.00 | 0.00 | 96 | 1003.4 |
| 20260504010508 | 80 | 297 | 0.9 | 1.7 | 0.00 | 0.00 | 0.00 | 96 | 1003.0 |
| 20260504010008 | 80 | 292 | 0.9 | 1.7 | 0.00 | 0.00 | 0.00 | 96 | 1003.0 |
| 20260504005508 | 79 | 292 | 2.6 | 4.3 | 0.00 | 0.00 | 0.00 | 96 | 1002.5 |
| 20260504005008 | 79 | 289 | 1.7 | 4.3 | 0.00 | 0.00 | 0.00 | 96 | 1002.5 |
| 20260504004508 | 79 | 272 | 1.7 | 4.3 | 0.00 | 0.00 | 0.00 | 96 | 1002.5 |
| 20260504003507 | 80 | 281 | 2.6 | 4.3 | 0.00 | 0.00 | 0.00 | 96 | 1002.5 |
| 20260504003008 | 80 | 309 | 2.6 | 5.2 | 0.00 | 0.00 | 0.00 | 96 | 1002.4 |
| 20260504002508 | 80 | 281 | 2.6 | 5.2 | 0.00 | 0.00 | 0.00 | 96 | 1002.4 |
| 20260504001508 | 80 | 288 | 1.7 | 4.3 | 0.00 | 0.00 | 0.00 | 96 | 1002.4 |
| 20260504001008 | 80 | 287 | 2.6 | 5.2 | 0.00 | 0.00 | 0.00 | 96 | 1002.4 |
| 20260504000508 | 80 | 286 | 2.6 | 4.3 | 0.00 | 0.00 | 0.00 | 95 | 1002.4 |
| 20260503235507 | 80 | 292 | 0.9 | 2.6 | 0.00 | 0.00 | 0.00 | 95 | 1002.2 |
| 20260503235008 | 80 | 301 | 1.7 | 2.6 | 0.00 | 0.00 | 0.00 | 95 | 1002.2 |
| 20260503234508 | 80 | 303 | 1.7 | 1.7 | 0.00 | 0.00 | 0.00 | 95 | 1002.2 |
| 20260503234007 | 80 | 292 | 0.9 | 4.3 | 0.00 | 0.00 | 0.00 | 95 | 1002.1 |
| 20260503233507 | 80 | 299 | 1.7 | 2.6 | 0.00 | 0.00 | 0.00 | 95 | 1002.1 |
| 20260503233008 | 80 | 282 | 1.7 | 2.6 | 0.00 | 0.00 | 0.00 | 95 | 1001.9 |
| 20260503232507 | 80 | 292 | 1.7 | 4.3 | 0.00 | 0.00 | 0.00 | 95 | 1001.9 |
| 20260503232007 | 80 | 270 | 1.7 | 4.3 | 0.00 | 0.00 | 0.00 | 95 | 1001.8 |
| 20260503231507 | 80 | 271 | 1.7 | 2.6 | 0.00 | 0.00 | 0.00 | 95 | 1001.8 |
| 20260503231007 | 80 | 281 | 2.6 | 4.3 | 0.00 | 0.00 | 0.00 | 94 | 1001.8 |
| 20260503230508 | 80 | 292 | 1.7 | 5.2 | 0.00 | 0.00 | 0.00 | 94 | 1001.7 |
| 20260503225508 | 80 | 270 | 1.7 | 4.3 | 0.00 | 0.00 | 0.00 | 94 | 1001.7 |
| 20260503225008 | 80 | 270 | 2.6 | 4.3 | 0.00 | 0.00 | 0.00 | 94 | 1001.7 |
| 20260503224508 | 80 | 281 | 1.7 | 4.3 | 0.00 | 0.00 | 0.00 | 94 | 1001.7 |
| 20260503224007 | 80 | 270 | 2.6 | 4.3 | 0.00 | 0.00 | 0.00 | 94 | 1001.7 |
| 20260503223508 | 80 | 275 | 2.6 | 4.3 | 0.00 | 0.00 | 0.00 | 94 | 1001.7 |
| 20260503223008 | 80 | 289 | 2.6 | 5.2 | 0.00 | 0.00 | 0.00 | 93 | 1001.6 |
| 20260503222507 | 80 | 285 | 1.7 | 5.2 | 0.00 | 0.00 | 0.00 | 93 | 1001.6 |
| 20260503221507 | 80 | 325 | 3.5 | 5.2 | 0.00 | 0.00 | 0.00 | 93 | 1001.4 |
| 20260503221007 | 80 | 276 | 2.6 | 5.2 | 0.00 | 0.00 | 0.00 | 93 | 1001.4 |
| 20260503220508 | 80 | 283 | 2.6 | 6.1 | 0.00 | 0.00 | 0.00 | 93 | 1001.6 |
| 20260503220008 | 81 | 279 | 3.5 | 6.1 | 0.00 | 0.00 | 0.00 | 93 | 1001.6 |
| 20260503215507 | 81 | 270 | 2.6 | 6.1 | 0.00 | 0.00 | 0.00 | 93 | 1001.7 |
| 20260503214507 | 81 | 283 | 2.6 | 6.1 | 0.00 | 0.00 | 0.00 | 93 | 1001.7 |
| 20260503213508 | 81 | 261 | 2.6 | 8.7 | 0.00 | 0.00 | 0.00 | 93 | 1001.8 |
| 20260503213007 | 81 | 284 | 2.6 | 7.0 | 0.00 | 0.00 | 0.00 | 93 | 1002.1 |
| 20260503212507 | 81 | 311 | 4.3 | 6.1 | 0.00 | 0.00 | 0.00 | 93 | 1002.1 |
| 20260503212007 | 81 | 275 | 2.6 | 5.2 | 0.00 | 0.00 | 0.00 | 93 | 1002.1 |
| 20260503211007 | 81 | 286 | 2.6 | 4.3 | 0.00 | 0.00 | 0.00 | 93 | 1002.1 |
| 20260503210507 | 81 | 327 | 3.5 | 5.2 | 0.00 | 0.00 | 0.00 | 93 | 1002.2 |
| 20260503210007 | 81 | 279 | 4.3 | 6.1 | 0.00 | 0.00 | 0.00 | 93 | 1002.2 |
| 20260503205507 | 81 | 280 | 4.3 | 7.0 | 0.00 | 0.00 | 0.00 | 93 | 1002.4 |
| 20260503205007 | 81 | 298 | 4.3 | 7.0 | 0.00 | 0.00 | 0.00 | 93 | 1002.4 |
| 20260503204507 | 81 | 288 | 4.3 | 6.1 | 0.00 | 0.00 | 0.00 | 93 | 1002.4 |
| 20260503204007 | 81 | 333 | 2.6 | 5.2 | 0.00 | 0.00 | 0.00 | 93 | 1002.7 |
| 20260503203507 | 81 | 306 | 2.6 | 5.2 | 0.00 | 0.00 | 0.00 | 93 | 1002.7 |
| 20260503203007 | 81 | 298 | 2.6 | 5.2 | 0.00 | 0.00 | 0.00 | 93 | 1002.7 |
| 20260503202507 | 81 | 287 | 3.5 | 5.2 | 0.00 | 0.00 | 0.00 | 93 | 1002.7 |
| 20260503202007 | 81 | 280 | 4.3 | 5.2 | 0.00 | 0.00 | 0.00 | 93 | 1002.7 |
| 20260503201508 | 81 | 303 | 2.6 | 5.2 | 0.00 | 0.00 | 0.00 | 93 | 1003.2 |
| 20260503201008 | 81 | 292 | 3.5 | 5.2 | 0.00 | 0.00 | 0.00 | 93 | 1003.2 |
| 20260503200507 | 81 | 273 | 4.3 | 6.1 | 0.00 | 0.00 | 0.00 | 93 | 1003.4 |
| 20260503200008 | 81 | 279 | 4.3 | 6.1 | 0.00 | 0.00 | 0.00 | 93 | 1003.4 |
| 20260503195507 | 81 | 285 | 2.6 | 5.2 | 0.00 | 0.00 | 0.00 | 93 | 1003.6 |
| 20260503195007 | 81 | 270 | 2.6 | 5.2 | 0.00 | 0.00 | 0.00 | 93 | 1003.6 |
| 20260503194008 | 82 | 302 | 2.6 | 5.2 | 0.00 | 0.00 | 0.00 | 93 | 1003.6 |
| 20260503192507 | 82 | 281 | 1.7 | 4.3 | 0.00 | 0.00 | 0.00 | 93 | 1003.9 |
| 20260503192007 | 82 | 283 | 2.6 | 4.3 | 0.00 | 0.00 | 0.00 | 93 | 1003.9 |
| 20260503191507 | 82 | 270 | 2.6 | 5.2 | 0.00 | 0.00 | 0.00 | 93 | 1004.1 |
| 20260503191007 | 82 | 270 | 2.6 | 8.7 | 0.00 | 0.00 | 0.00 | 93 | 1004.1 |
| 20260503190507 | 82 | 288 | 2.6 | 5.2 | 0.00 | 0.00 | 0.00 | 93 | 1004.3 |
| 20260503190007 | 82 | 270 | 1.7 | 2.6 | 0.00 | 0.00 | 0.00 | 93 | 1004.3 |
| 20260503185507 | 82 | 292 | 1.7 | 4.3 | 0.00 | 0.00 | 0.00 | 93 | 1004.2 |
| 20260503184506 | 82 | 292 | 1.7 | 5.2 | 0.00 | 0.00 | 0.00 | 93 | 1004.2 |
| 20260503184007 | 82 | 270 | 2.6 | 4.3 | 0.00 | 0.00 | 0.00 | 93 | 1004.0 |
| 20260503183507 | 82 | 297 | 2.6 | 4.3 | 0.00 | 0.00 | 0.00 | 93 | 1004.0 |
| 20260503183007 | 82 | 282 | 2.6 | 6.1 | 0.00 | 0.00 | 0.00 | 93 | 1004.0 |
| 20260503182507 | 82 | 270 | 2.6 | 5.2 | 0.00 | 0.00 | 0.00 | 93 | 1004.0 |
| 20260503182007 | 82 | 282 | 3.5 | 5.2 | 0.00 | 0.00 | 0.00 | 93 | 1004.1 |
| 20260503181007 | 82 | 271 | 1.7 | 5.2 | 0.00 | 0.00 | 0.00 | 93 | 1004.2 |
| 20260503180507 | 82 | 273 | 3.5 | 5.2 | 0.00 | 0.00 | 0.00 | 93 | 1004.4 |
| 20260503180008 | 82 | 270 | 2.6 | 4.3 | 0.00 | 0.00 | 0.00 | 93 | 1004.4 |
| 20260503175507 | 82 | 253 | 4.3 | 6.1 | 0.00 | 0.00 | 0.00 | 93 | 1004.3 |
| 20260503174507 | 82 | 336 | 1.7 | 4.3 | 0.00 | 0.00 | 0.00 | 94 | 1004.3 |
| 20260503174007 | 82 | 291 | 1.7 | 2.6 | 0.00 | 0.00 | 0.00 | 94 | 1004.0 |
| 20260503173508 | 82 | 270 | 0.9 | 2.6 | 0.00 | 0.00 | 0.00 | 94 | 1004.0 |
| 20260503173007 | 82 | 270 | 1.7 | 4.3 | 0.00 | 0.00 | 0.00 | 94 | 1004.2 |
| 20260503172507 | 82 | 291 | 2.6 | 4.3 | 0.00 | 0.00 | 0.00 | 94 | 1004.2 |
| 20260503172007 | 83 | 279 | 2.6 | 5.2 | 0.00 | 0.00 | 0.00 | 94 | 1004.2 |
| 20260503171507 | 83 | 275 | 1.7 | 5.2 | 0.00 | 0.00 | 0.00 | 94 | 1004.3 |
| 20260503171007 | 83 | 310 | 2.6 | 2.6 | 0.00 | 0.00 | 0.00 | 94 | 1004.3 |
| 20260503170507 | 83 | 270 | 1.7 | 5.2 | 0.00 | 0.00 | 0.00 | 94 | 1004.4 |
| 20260503151006 | 84 | 280 | 1.7 | 4.3 | 0.00 | 0.00 | 0.00 | 92 | 1003.7 |
| 20260503150507 | 84 | 293 | 1.7 | 4.3 | 0.00 | 0.00 | 0.00 | 91 | 1003.6 |
| 20260503131007 | 87 | 264 | 2.6 | 5.2 | 0.00 | 0.00 | 0.00 | 85 | 1002.3 |
| 20260503130507 | 87 | 258 | 2.6 | 4.3 | 0.00 | 0.00 | 0.00 | 85 | 1002.1 |